| time (UTC) | temp F | wind direction | speed knots | gust knots | rain 1hr in | rain 24hr in | rain mn in | humidity % | barometer mb |
| 20260509105140 | 66 | 0.0 | 0.0 | 0.00 | 0.12 | 0.00 | 73 | 1005.1 | |
| 20260509104116 | 65 | 0.0 | 0.0 | 0.00 | 0.12 | 0.00 | 73 | 1005.2 | |
| 20260509103140 | 65 | 0.0 | 0.0 | 0.00 | 0.12 | 0.00 | 72 | 1005.1 | |
| 20260509102116 | 66 | 0.0 | 0.0 | 0.00 | 0.12 | 0.00 | 72 | 1005.3 | |
| 20260509101140 | 65 | 0.0 | 0.0 | 0.00 | 0.12 | 0.00 | 71 | 1005.2 | |
| 20260509100117 | 63 | 0.0 | 0.0 | 0.00 | 0.12 | 0.00 | 76 | 1005.4 | |
| 20260509095140 | 61 | 0.0 | 0.0 | 0.00 | 0.12 | 0.00 | 81 | 1005.5 | |
| 20260509094117 | 60 | 0.0 | 0.0 | 0.00 | 0.12 | 0.00 | 82 | 1005.4 | |
| 20260509093140 | 60 | 0.0 | 0.0 | 0.00 | 0.12 | 0.00 | 81 | 1005.4 | |
| 20260509092116 | 60 | 0.0 | 0.0 | 0.00 | 0.12 | 0.00 | 81 | 1005.6 | |
| 20260509091140 | 60 | 0.0 | 0.0 | 0.00 | 0.12 | 0.00 | 82 | 1005.5 | |
| 20260509090116 | 59 | 0.0 | 0.0 | 0.00 | 0.12 | 0.00 | 81 | 1005.4 | |
| 20260509085140 | 59 | 0.0 | 0.0 | 0.00 | 0.12 | 0.00 | 79 | 1005.2 | |
| 20260509084116 | 58 | 0.0 | 0.0 | 0.00 | 0.12 | 0.00 | 81 | 1005.4 | |
| 20260509083140 | 57 | 0.0 | 0.0 | 0.00 | 0.12 | 0.00 | 87 | 1005.6 | |
| 20260509082117 | 56 | 0.0 | 0.0 | 0.00 | 0.12 | 0.00 | 90 | 1005.6 | |
| 20260509081140 | 54 | 0.0 | 0.0 | 0.00 | 0.12 | 0.00 | 90 | 1005.5 | |
| 20260509080117 | 54 | 0.0 | 0.0 | 0.00 | 0.12 | 0.00 | 89 | 1005.5 | |
| 20260509075140 | 54 | 0.0 | 0.0 | 0.00 | 0.12 | 0.00 | 89 | 1005.5 | |
| 20260509074116 | 54 | 0.0 | 0.0 | 0.00 | 0.12 | 0.00 | 89 | 1005.6 | |
| 20260509073140 | 53 | 0.0 | 0.0 | 0.00 | 0.12 | 0.00 | 92 | 1005.6 | |
| 20260509072116 | 53 | 0.0 | 0.0 | 0.00 | 0.12 | 0.00 | 93 | 1005.5 | |
| 20260509071140 | 53 | 0.0 | 0.0 | 0.00 | 0.12 | 0.00 | 93 | 1005.5 | |
| 20260509070117 | 53 | 0.0 | 0.0 | 0.00 | 0.12 | 0.00 | 94 | 1005.7 | |
| 20260509065140 | 53 | 0.0 | 0.0 | 0.00 | 0.12 | 0.00 | 94 | 1005.7 | |
| 20260509064116 | 52 | 0.0 | 0.0 | 0.00 | 0.12 | 0.00 | 95 | 1005.7 | |
| 20260509063141 | 52 | 0.0 | 0.0 | 0.00 | 0.12 | 0.00 | 95 | 1006.0 | |
| 20260509062116 | 52 | 0.0 | 0.0 | 0.00 | 0.12 | 0.00 | 95 | 1005.8 | |
| 20260509061141 | 51 | 0.0 | 0.0 | 0.00 | 0.12 | 0.00 | 95 | 1005.6 | |
| 20260509060116 | 51 | 0.0 | 0.0 | 0.00 | 0.12 | 0.00 | 96 | 1005.6 | |
| 20260509055140 | 51 | 0.0 | 0.0 | 0.00 | 0.12 | 0.00 | 96 | 1005.6 | |
| 20260509054117 | 51 | 0.0 | 0.0 | 0.00 | 0.12 | 0.00 | 96 | 1005.7 | |
| 20260509053140 | 51 | 0.0 | 0.0 | 0.00 | 0.12 | 0.00 | 95 | 1005.8 | |
| 20260509052117 | 51 | 0.0 | 0.0 | 0.00 | 0.12 | 0.00 | 95 | 1005.4 | |
| 20260509051140 | 51 | 0.0 | 0.0 | 0.00 | 0.12 | 0.00 | 95 | 1005.7 | |
| 20260509050116 | 51 | 0.0 | 0.0 | 0.00 | 0.12 | 0.00 | 95 | 1005.6 | |
| 20260509045140 | 51 | 0.0 | 0.0 | 0.00 | 0.12 | 0.00 | 95 | 1005.4 | |
| 20260509044117 | 51 | 0.0 | 0.0 | 0.00 | 0.12 | 0.00 | 95 | 1005.6 | |
| 20260509043140 | 51 | 0.0 | 0.0 | 0.00 | 0.12 | 0.00 | 94 | 1005.6 | |
| 20260509042117 | 51 | 0.0 | 0.0 | 0.00 | 0.12 | 0.00 | 94 | 1005.5 | |
| 20260509041140 | 52 | 0.0 | 0.0 | 0.00 | 0.12 | 0.00 | 94 | 1005.6 | |
| 20260509040117 | 51 | 0.0 | 0.0 | 0.00 | 0.12 | 0.00 | 94 | 1005.5 | |
| 20260509035140 | 51 | 0.0 | 0.0 | 0.00 | 0.12 | 0.00 | 94 | 1005.7 | |
| 20260509034116 | 51 | 0.0 | 0.0 | 0.00 | 0.12 | 0.00 | 94 | 1006.0 | |
| 20260509033140 | 51 | 0.0 | 0.0 | 0.00 | 0.12 | 0.00 | 94 | 1005.9 | |
| 20260509032117 | 52 | 0.0 | 0.0 | 0.00 | 0.12 | 0.00 | 94 | 1006.1 | |
| 20260509031140 | 52 | 0.0 | 0.0 | 0.00 | 0.12 | 0.00 | 94 | 1006.0 | |
| 20260509030116 | 52 | 0.0 | 0.0 | 0.00 | 0.12 | 0.00 | 94 | 1006.0 | |
| 20260509025140 | 52 | 0.0 | 0.0 | 0.00 | 0.12 | 0.00 | 94 | 1006.0 | |
| 20260509024116 | 52 | 0.0 | 0.0 | 0.00 | 0.12 | 0.00 | 94 | 1006.2 | |
| 20260509023140 | 52 | 0.0 | 0.0 | 0.00 | 0.12 | 0.00 | 94 | 1006.2 | |
| 20260509022117 | 52 | 0.0 | 0.0 | 0.00 | 0.12 | 0.00 | 95 | 1006.2 | |
| 20260509021140 | 52 | 0.0 | 0.0 | 0.00 | 0.12 | 0.00 | 95 | 1006.7 | |
| 20260509020117 | 52 | 0.0 | 0.0 | 0.00 | 0.12 | 0.00 | 95 | 1006.9 | |
| 20260509015140 | 52 | 0.0 | 0.0 | 0.00 | 0.12 | 0.00 | 95 | 1006.9 | |
| 20260509014117 | 51 | 0.0 | 0.0 | 0.00 | 0.12 | 0.00 | 96 | 1007.2 | |
| 20260509013140 | 51 | 0.0 | 0.0 | 0.00 | 0.12 | 0.00 | 96 | 1007.2 | |
| 20260509012116 | 51 | 0.0 | 0.0 | 0.00 | 0.12 | 0.00 | 96 | 1007.3 | |
| 20260509011141 | 51 | 0.0 | 0.0 | 0.00 | 0.12 | 0.00 | 97 | 1007.4 | |
| 20260509010116 | 50 | 0.0 | 0.0 | 0.00 | 0.12 | 0.00 | 97 | 1007.3 | |
| 20260509005140 | 49 | 0.0 | 0.0 | 0.00 | 0.12 | 0.00 | 97 | 1007.3 | |
| 20260509004117 | 50 | 0.0 | 0.0 | 0.00 | 0.12 | 0.00 | 97 | 1007.4 | |
| 20260509003140 | 50 | 0.0 | 0.0 | 0.00 | 0.12 | 0.00 | 97 | 1007.7 | |
| 20260509002117 | 49 | 0.0 | 0.0 | 0.00 | 0.12 | 0.00 | 97 | 1007.7 | |
| 20260509001140 | 49 | 0.0 | 0.0 | 0.00 | 0.12 | 0.00 | 97 | 1007.8 | |
| 20260509000117 | 49 | 0.0 | 0.0 | 0.00 | 0.12 | 0.00 | 97 | 1008.0 | |
| 20260508235140 | 49 | 0.0 | 0.0 | 0.00 | 0.12 | 0.00 | 96 | 1008.1 | |
| 20260508234116 | 50 | 0.0 | 0.0 | 0.00 | 0.12 | 0.00 | 96 | 1008.2 | |
| 20260508233141 | 50 | 0.0 | 0.0 | 0.00 | 0.12 | 0.00 | 96 | 1008.0 | |
| 20260508232117 | 50 | 0.0 | 0.0 | 0.00 | 0.12 | 0.00 | 96 | 1008.4 | |
| 20260508231141 | 50 | 0.0 | 0.0 | 0.00 | 0.12 | 0.00 | 96 | 1008.6 | |
| 20260508230117 | 50 | 0.0 | 0.0 | 0.00 | 0.12 | 0.00 | 96 | 1008.5 | |
| 20260508225140 | 50 | 0.0 | 0.0 | 0.00 | 0.12 | 0.00 | 96 | 1008.5 | |
| 20260508224117 | 50 | 0.0 | 0.0 | 0.00 | 0.12 | 0.00 | 96 | 1008.5 | |
| 20260508223140 | 50 | 0.0 | 0.0 | 0.00 | 0.12 | 0.00 | 95 | 1008.3 | |
| 20260508222116 | 51 | 0.0 | 0.0 | 0.00 | 0.12 | 0.00 | 95 | 1008.8 | |
| 20260508221140 | 51 | 0.0 | 0.0 | 0.00 | 0.12 | 0.00 | 95 | 1008.7 | |
| 20260508220116 | 51 | 0.0 | 0.0 | 0.00 | 0.12 | 0.12 | 95 | 1008.8 | |
| 20260508215140 | 51 | 0.0 | 0.0 | 0.00 | 0.12 | 0.12 | 95 | 1008.8 | |
| 20260508214116 | 51 | 0.0 | 0.0 | 0.00 | 0.12 | 0.12 | 94 | 1008.8 | |
| 20260508213140 | 51 | 0.0 | 0.0 | 0.00 | 0.12 | 0.12 | 94 | 1009.0 | |
| 20260508212116 | 51 | 0.0 | 0.0 | 0.00 | 0.12 | 0.12 | 93 | 1009.3 | |
| 20260508211140 | 52 | 0.0 | 0.0 | 0.00 | 0.12 | 0.12 | 93 | 1009.3 | |
| 20260508210117 | 52 | 0.0 | 0.0 | 0.00 | 0.12 | 0.12 | 93 | 1009.1 | |
| 20260508205141 | 53 | 0.0 | 0.0 | 0.00 | 0.12 | 0.12 | 92 | 1009.4 | |
| 20260508204117 | 53 | 0.0 | 0.0 | 0.00 | 0.12 | 0.12 | 93 | 1009.3 | |
| 20260508203140 | 54 | 0.0 | 0.0 | 0.00 | 0.12 | 0.12 | 93 | 1009.2 | |
| 20260508202116 | 54 | 0.0 | 0.0 | 0.00 | 0.12 | 0.12 | 91 | 1009.1 | |
| 20260508201140 | 54 | 0.0 | 0.0 | 0.00 | 0.12 | 0.12 | 90 | 1009.0 | |
| 20260508200118 | 54 | 0.0 | 0.0 | 0.00 | 0.12 | 0.12 | 90 | 1009.2 | |
| 20260508195141 | 54 | 0.0 | 0.0 | 0.00 | 0.12 | 0.12 | 90 | 1009.1 | |
| 20260508194117 | 54 | 0.0 | 0.0 | 0.00 | 0.12 | 0.12 | 90 | 1009.3 | |
| 20260508193141 | 54 | 0.0 | 0.0 | 0.00 | 0.12 | 0.12 | 90 | 1008.9 | |
| 20260508192116 | 54 | 0.0 | 0.0 | 0.00 | 0.12 | 0.12 | 90 | 1008.9 | |
| 20260508191140 | 54 | 0.0 | 0.0 | 0.00 | 0.12 | 0.12 | 91 | 1008.9 | |
| 20260508190117 | 54 | 0.0 | 0.0 | 0.00 | 0.12 | 0.12 | 92 | 1008.6 | |
| 20260508185140 | 55 | 0.0 | 0.0 | 0.00 | 0.12 | 0.12 | 94 | 1008.7 | |
| 20260508184116 | 57 | 0.0 | 0.0 | 0.00 | 0.12 | 0.12 | 94 | 1008.4 | |
| 20260508183140 | 57 | 0.0 | 0.0 | 0.00 | 0.12 | 0.12 | 93 | 1008.4 | |
| 20260508182116 | 57 | 0.0 | 0.0 | 0.00 | 0.12 | 0.12 | 94 | 1008.0 | |
| 20260508181140 | 57 | 0.0 | 0.0 | 0.00 | 0.12 | 0.12 | 94 | 1008.0 | |
| 20260508180116 | 57 | 0.0 | 0.0 | 0.00 | 0.12 | 0.12 | 94 | 1007.9 | |
| 20260508175140 | 57 | 0.0 | 0.0 | 0.00 | 0.12 | 0.12 | 94 | 1007.5 | |
| 20260508174117 | 57 | 0.0 | 0.0 | 0.01 | 0.12 | 0.12 | 93 | 1007.6 | |
| 20260508173140 | 56 | 0.0 | 0.0 | 0.02 | 0.12 | 0.12 | 93 | 1007.8 | |
| 20260508172117 | 57 | 0.0 | 0.0 | 0.05 | 0.12 | 0.12 | 93 | 1007.8 | |
| 20260508171140 | 56 | 0.0 | 0.0 | 0.07 | 0.12 | 0.12 | 93 | 1007.6 | |
| 20260508170116 | 57 | 0.0 | 0.0 | 0.08 | 0.12 | 0.12 | 94 | 1007.6 | |
| 20260508165140 | 57 | 0.0 | 0.0 | 0.08 | 0.12 | 0.12 | 94 | 1007.7 | |
| 20260508164117 | 57 | 0.0 | 0.0 | 0.07 | 0.11 | 0.11 | 93 | 1007.5 | |
| 20260508163140 | 58 | 0.0 | 0.0 | 0.05 | 0.10 | 0.10 | 92 | 1007.6 | |
| 20260508162116 | 58 | 0.0 | 0.0 | 0.02 | 0.07 | 0.07 | 90 | 1007.6 | |
| 20260508161141 | 58 | 0.0 | 0.0 | 0.01 | 0.05 | 0.05 | 89 | 1007.4 | |
| 20260508160117 | 59 | 0.0 | 0.0 | 0.00 | 0.04 | 0.04 | 87 | 1007.3 | |
| 20260508155140 | 61 | 0.0 | 0.0 | 0.00 | 0.04 | 0.04 | 83 | 1007.2 | |
| 20260508154117 | 61 | 0.0 | 0.0 | 0.00 | 0.04 | 0.04 | 83 | 1006.9 | |
| 20260508153140 | 61 | 0.0 | 0.0 | 0.00 | 0.04 | 0.04 | 83 | 1007.2 | |
| 20260508152117 | 61 | 0.0 | 0.0 | 0.00 | 0.04 | 0.04 | 83 | 1006.7 | |
| 20260508151140 | 61 | 0.0 | 0.0 | 0.00 | 0.04 | 0.04 | 83 | 1006.7 | |
| 20260508150117 | 62 | 0.0 | 0.0 | 0.00 | 0.04 | 0.04 | 84 | 1006.7 | |
| 20260508145140 | 61 | 0.0 | 0.0 | 0.00 | 0.04 | 0.04 | 84 | 1006.7 | |
| 20260508144117 | 61 | 0.0 | 0.0 | 0.00 | 0.04 | 0.04 | 85 | 1006.8 | |
| 20260508143140 | 60 | 0.0 | 0.0 | 0.00 | 0.04 | 0.04 | 87 | 1006.5 | |
| 20260508142117 | 60 | 0.0 | 0.0 | 0.00 | 0.04 | 0.04 | 87 | 1007.1 | |
| 20260508141141 | 60 | 0.0 | 0.0 | 0.00 | 0.04 | 0.04 | 88 | 1006.9 | |
| 20260508140117 | 59 | 0.0 | 0.0 | 0.00 | 0.04 | 0.04 | 88 | 1006.9 | |
| 20260508135141 | 59 | 0.0 | 0.0 | 0.00 | 0.04 | 0.04 | 88 | 1007.1 | |
| 20260508134117 | 59 | 0.0 | 0.0 | 0.01 | 0.04 | 0.04 | 89 | 1007.2 | |
| 20260508133140 | 58 | 0.0 | 0.0 | 0.02 | 0.04 | 0.04 | 91 | 1007.2 | |
| 20260508132117 | 58 | 0.0 | 0.0 | 0.03 | 0.04 | 0.04 | 92 | 1007.5 | |
| 20260508131140 | 57 | 0.0 | 0.0 | 0.03 | 0.04 | 0.04 | 93 | 1007.5 | |
| 20260508130117 | 57 | 0.0 | 0.0 | 0.03 | 0.04 | 0.04 | 94 | 1007.6 | |
| 20260508125140 | 57 | 0.0 | 0.0 | 0.03 | 0.04 | 0.04 | 94 | 1008.0 | |
| 20260508124116 | 56 | 0.0 | 0.0 | 0.02 | 0.03 | 0.03 | 93 | 1008.4 | |
| 20260508123140 | 56 | 0.0 | 0.0 | 0.01 | 0.02 | 0.02 | 93 | 1008.7 | |
| 20260508122116 | 56 | 0.0 | 0.0 | 0.00 | 0.01 | 0.01 | 92 | 1008.4 | |
| 20260508121140 | 56 | 0.0 | 0.0 | 0.01 | 0.01 | 0.01 | 92 | 1008.4 | |
| 20260508120117 | 57 | 0.0 | 0.0 | 0.01 | 0.01 | 0.01 | 92 | 1008.5 | |
| 20260508115140 | 57 | 0.0 | 0.0 | 0.01 | 0.01 | 0.01 | 92 | 1008.1 | |
| 20260508114117 | 58 | 0.0 | 0.0 | 0.01 | 0.01 | 0.01 | 91 | 1008.0 | |
| 20260508113140 | 58 | 0.0 | 0.0 | 0.01 | 0.01 | 0.01 | 90 | 1008.0 | |
| 20260508112116 | 59 | 0.0 | 0.0 | 0.01 | 0.01 | 0.01 | 89 | 1007.9 | |
| 20260508111140 | 59 | 0.0 | 0.0 | 0.00 | 0.00 | 0.00 | 89 | 1007.8 | |
| 20260508105811 | 59 | 0.0 | 0.0 | 0.00 | 0.00 | 0.00 | 88 | 1007.8 |